Temperature
18 17 18 18 18 18 18 18 18 18 18 18 18 18 18 18 18 18 18 18 18 18 18 18 18 19 19 19 19 19 19 18 18 19 19 19 18 18 18 18 18 18 18
18 17 18 18 18 18 18 18 18 18 18 18 18 18 18 18 18 18 18 18 18 18 18 18 18 18 18 18 18 18 18 18 18 18 18 18 18 18 18 18 18 18 18
18 17 18 18 18 18 18 18 18 18 18 18 18 18 18 18 18 18 18 18 18 18 18 18 18 18 18 18 18 18 18 18 18 18 18 17 17 18 18 18 18 18 18
17 17 17 18 18 18 18 18 18 17 17 17 17 17 17 17 17 17 17 17 17 17 17 18 18 18 18 18 18 18 18 18 18 18 17 17 17 18 18 18 18 18 18
17 17 17 18 17 17 17 17 17 17 17 17 17 17 17 17 17 17 17 17 17 17 17 17 17 17 18 18 18 18 18 18 18 18 17 17 17 18 18 18 18 18 18
17 17 17 17 17 17 17 17 17 17 17 17 17 17 17 17 17 17 17 17 17 17 17 17 17 17 18 18 17 17 18 18 18 17 17 17 17 18 18 18 18 18 18
17 17 17 17 17 17 17 17 17 17 17 16 16 16 16 16 16 16 17 17 17 17 17 17 17 17 17 17 17 17 17 18 17 17 17 17 17 18 18 18 18 18 18
17 17 17 17 17 17 17 17 17 16 16 16 16 16 16 16 16 16 16 16 16 16 16 16 17 17 17 17 17 17 17 17 17 17 17 17 17 18 18 18 18 18 18
17 17 17 17 17 17 17 16 16 16 16 16 16 16 16 16 16 16 16 16 16 16 16 16 16 16 17 17 17 17 17 17 17 17 17 17 18 18 18 18 18 18 18
17 17 17 17 17 16 16 16 16 16 16 16 16 15 15 15 15 15 15 15 15 15 16 16 16 16 16 16 17 17 17 17 16 17 17 17 18 18 18 18 18 18 18
18 17 17 17 16 16 16 16 16 16 15 15 15 15 15 15 15 15 15 15 15 15 15 15 16 16 16 16 16 17 17 16 16 17 17 17 18 18 18 18 18 18 18
18 18 17 17 17 16 16 16 15 15 15 15 15 15 15 15 15 15 15 15 15 15 15 15 15 16 16 16 16 16 16 16 16 17 17 17 18 18 18 18 18 18 18
19 18 18 17 17 17 16 16 16 15 15 15 15 15 14 15 15 15 15 15 14 14 15 15 15 15 15 16 16 16 16 16 16 16 17 17 17 18 18 18 18 18 18
19 18 18 17 17 17 16 16 16 15 15 15 15 14 14 14 14 14 14 14 14 14 14 14 15 15 15 15 15 16 16 16 16 16 16 17 17 17 17 17 17 17 18
19 18 18 17 17 17 16 16 16 15 15 15 14 14 14 14 14 14 14 14 14 14 14 14 15 15 15 15 15 15 16 16 16 16 16 17 17 17 17 17 17 17 17
19 19 18 17 17 17 17 16 16 15 15 15 14 14 14 14 14 14 14 14 14 14 14 14 14 14 15 15 15 15 15 16 16 16 16 16 17 17 17 17 17 17 17
19 19 18 18 17 17 17 16 16 15 15 15 14 14 14 14 14 14 14 14 14 14 14 14 14 14 14 15 15 15 15 15 15 16 16 16 16 17 17 17 17 17 17
19 19 18 18 17 17 16 16 16 15 15 15 14 14 14 14 14 13 13 13 13 13 13 14 14 14 14 15 15 15 15 15 15 15 16 16 16 16 17 17 17 17 17
19 19 18 18 17 17 16 16 15 15 15 15 14 14 14 14 13 13 13 13 13 13 13 13 14 14 14 14 15 15 15 15 15 15 16 16 16 16 16 17 17 17 17
19 19 18 18 18 17 17 16 16 15 15 14 14 14 13 13 13 13 13 13 13 13 13 13 13 13 14 14 15 15 15 15 15 15 15 16 16 16 16 16 16 17 17
20 19 19 18 18 17 17 16 16 15 15 14 14 14 13 13 13 13 13 13 13 13 13 13 13 13 14 14 14 15 15 15 15 15 15 15 16 16 16 16 16 16 16
20 19 19 18 18 17 17 16 16 15 15 14 14 14 13 13 13 13 13 13 13 13 13 13 13 13 13 14 14 15 16 16 15 15 15 15 16 16 16 16 16 16 16
20 20 19 18 18 18 17 16 16 15 15 14 14 14 14 13 13 13 13 13 13 13 13 13 13 13 13 14 14 14 15 16 16 15 15 15 15 15 16 16 16 16 16
20 20 19 19 18 17 17 16 16 15 15 15 14 14 14 13 13 13 13 13 13 13 13 13 13 13 13 13 14 14 14 14 15 15 15 15 15 15 15 15 16 16 16
20 20 19 18 18 17 17 16 16 15 15 15 14 14 14 14 13 13 13 13 13 13 13 13 13 13 13 13 13 14 14 14 15 15 15 15 15 15 15 15 15 15 15
20 20 19 19 18 18 17 16 16 15 15 15 14 14 14 14 13 13 13 13 13 13 13 13 13 13 13 13 13 13 14 14 14 15 15 15 15 15 15 15 15 15 15
Wind_Speed
6 8 9 8 9 9 8 9 8 8 7 6 6 5 5 4 4 3 3 3 2 2 2 2 2 3 4 4 3 3 4 4 4 4 4 4 3 3 4 4 3 5 8
8 9 10 8 8 8 8 8 8 7 7 6 6 5 4 4 3 2 2 1 1 1 1 1 2 2 2 3 2 2 2 3 3 3 2 2 3 3 3 4 5 6 6
9 9 10 9 9 8 8 8 8 8 7 7 6 6 5 4 3 2 2 1 1 1 1 1 2 2 2 2 2 2 2 2 2 2 4 1 4 4 3 3 4 4 5
9 9 9 10 9 9 9 8 8 8 7 7 6 6 5 4 4 3 3 2 2 2 2 2 2 2 3 3 3 3 2 2 2 4 4 1 1 5 2 2 2 3 4
9 9 10 9 9 9 9 8 8 7 6 6 5 5 5 4 4 4 4 4 3 3 3 3 3 3 3 3 4 3 3 2 3 6 2 2 1 4 2 1 1 2 3
9 9 10 9 9 8 8 8 7 6 6 5 5 5 5 4 4 4 4 4 4 4 4 4 4 4 4 4 4 4 4 3 7 3 2 2 1 3 2 1 1 1 2
9 9 10 9 8 8 8 7 7 6 5 5 5 5 5 5 5 4 4 5 4 4 4 4 4 4 4 4 5 5 5 5 6 4 3 2 1 2 2 1 1 0 1
9 8 9 9 7 6 6 6 6 5 5 5 5 5 5 5 5 5 5 5 5 4 4 5 5 5 5 5 5 5 5 8 6 5 4 3 2 1 2 1 2 1 1
7 7 6 7 7 7 5 5 5 4 5 5 4 4 4 5 5 5 5 5 5 5 5 5 5 5 5 5 5 6 6 6 8 6 5 3 2 2 2 2 2 2 2
7 6 5 5 4 4 5 6 4 4 4 4 4 4 4 2 1 3 4 4 5 5 5 5 5 5 5 5 5 5 6 8 9 7 5 2 1 3 3 3 3 3 2
6 5 5 4 3 3 3 4 3 3 2 0 1 2 3 4 4 3 5 6 5 5 5 5 5 5 6 6 5 5 7 7 6 6 5 3 1 4 4 3 3 4 3
7 6 4 4 3 2 1 2 0 1 1 2 4 4 4 4 4 5 2 2 4 4 4 3 5 7 8 5 5 7 6 6 6 6 3 3 3 4 5 5 5 5 4
6 5 4 4 3 2 1 0 1 1 1 2 3 4 4 4 4 4 4 2 3 5 5 3 6 5 5 4 5 5 5 5 5 5 1 2 3 4 5 5 6 6 6
5 5 4 4 3 2 1 1 0 1 2 3 3 5 4 4 4 4 4 5 5 4 5 6 5 5 5 5 6 6 6 5 5 4 1 1 3 4 4 5 6 7 7
6 5 5 4 3 2 1 1 1 1 2 2 3 4 4 4 4 4 4 4 5 5 5 5 5 5 5 5 5 6 5 6 6 5 2 2 2 3 4 4 6 8 7
6 6 5 5 4 3 3 2 1 1 1 3 3 4 4 4 4 4 5 4 5 5 6 6 5 5 5 5 5 5 6 5 5 5 4 3 3 2 2 3 5 7 7
7 6 6 5 4 4 3 1 1 1 2 2 3 4 4 4 4 5 5 4 5 5 6 5 5 5 5 4 5 5 5 5 5 5 5 4 4 5 3 2 4 5 6
7 7 6 5 5 4 3 2 1 1 2 2 3 3 4 4 5 5 4 5 5 5 5 5 5 4 4 4 4 4 4 3 5 5 5 5 4 4 5 4 3 4 5
8 7 7 6 5 4 3 2 2 1 1 2 2 3 4 4 5 4 4 5 6 5 5 5 4 5 4 4 3 3 3 3 3 4 5 4 4 4 4 6 5 5 5
8 8 7 6 6 5 4 3 2 1 1 1 2 2 4 4 5 5 4 5 5 4 4 4 5 4 4 3 4 3 2 2 3 3 4 3 3 4 3 4 5 6 6
9 9 8 8 7 5 4 3 2 1 1 1 1 2 3 3 4 4 5 4 4 4 5 5 5 4 3 3 3 3 2 2 2 1 2 3 3 2 2 3 4 4 6
10 9 9 8 7 6 4 3 2 1 2 1 2 2 3 3 4 4 5 4 4 4 4 5 4 4 3 2 3 3 2 3 2 1 1 2 2 2 2 2 3 4 4
9 9 8 8 8 7 5 3 2 2 2 2 2 2 2 3 4 4 5 4 4 4 4 4 4 4 4 2 2 2 2 1 1 2 1 1 1 1 1 1 2 2 3
7 8 8 8 7 7 6 5 4 3 2 2 2 2 3 2 3 4 4 4 4 4 4 4 4 4 4 3 1 2 3 3 2 1 2 1 1 1 0 1 1 1 2
5 7 7 7 7 6 6 5 5 4 3 2 2 2 3 2 3 3 4 4 4 3 4 4 4 4 3 3 3 2 2 2 3 2 1 1 1 1 0 1 1 1 2
3 5 6 7 6 6 6 6 6 4 4 3 3 3 3 2 2 2 3 3 3 3 3 4 4 3 3 3 2 2 2 2 2 2 2 2 1 1 1 0 1 1 1
Wind_Direction
133 129 121 126 122 119 116 113 111 110 109 106 101 99 105 106 101 97 107 108 98 89 81 57 33 36 46 40 41 45 46 47 52 54 57 62 61 62 56 40 7 64 56
129 126 122 122 119 115 113 110 106 105 102 98 93 87 86 86 82 77 88 97 81 55 45 43 20 17 22 21 18 25 30 30 34 39 44 125 100 65 53 39 18 41 44
126 126 127 119 114 110 108 106 100 96 91 85 81 77 74 70 61 47 31 17 347 296 299 344 334 341 348 352 348 349 1 3 6 354 269 223 106 85 53 50 47 47 44
123 124 117 115 112 108 105 101 95 89 82 78 70 64 57 49 36 19 2 344 323 303 297 300 306 325 329 328 331 330 327 329 333 285 262 27 65 82 45 41 46 45 45
121 118 112 115 112 109 105 100 94 86 78 70 62 53 44 32 18 3 349 338 331 326 318 314 310 311 312 317 313 311 306 306 293 270 322 346 21 70 21 14 31 46 50
123 118 114 116 113 110 105 98 91 84 74 64 57 49 39 24 9 358 346 337 328 322 313 310 307 297 292 300 302 292 286 286 269 264 287 292 347 66 350 342 358 60 61
125 119 116 115 114 110 105 98 92 85 73 64 54 45 36 23 10 358 345 336 326 320 317 315 308 301 291 287 292 291 282 280 275 270 262 273 17 35 318 295 284 189 97
124 123 120 119 112 105 101 95 87 77 65 57 51 41 31 19 8 358 346 338 330 321 314 308 305 301 295 290 292 290 282 281 264 263 256 260 57 332 292 269 247 239 180
127 125 121 123 127 124 107 90 79 71 64 53 42 34 23 15 2 351 340 337 327 318 308 304 300 298 298 289 284 285 279 280 277 262 254 244 99 288 279 265 243 228 199
140 138 131 123 116 117 121 103 82 72 63 49 38 25 2 325 319 320 302 351 332 323 315 309 302 295 291 281 272 276 270 258 253 251 249 192 106 278 272 262 236 215 206
154 152 148 139 124 115 106 110 120 112 81 281 98 57 301 326 342 307 10 353 335 329 322 315 305 296 281 246 237 257 254 254 254 255 251 82 293 270 254 240 221 210 203
164 164 161 162 155 151 129 120 97 21 26 345 357 349 336 345 340 331 48 349 337 322 287 292 288 264 263 262 220 221 244 246 257 251 224 97 277 263 245 228 213 200 193
166 168 176 179 175 171 161 155 11 353 351 341 350 342 329 326 323 329 331 323 312 296 302 293 269 275 281 281 283 259 251 254 250 258 200 99 279 264 244 226 215 198 192
179 182 183 192 184 185 183 131 291 333 341 348 345 337 335 334 327 343 328 339 326 323 322 306 295 290 286 274 267 265 249 246 247 250 191 91 285 273 251 231 215 203 197
188 193 192 194 198 189 174 226 285 339 336 348 345 330 336 328 331 337 329 332 325 327 315 305 297 304 292 285 275 268 258 245 245 241 218 158 272 279 257 233 214 204 199
197 193 184 192 195 205 200 215 313 339 340 335 343 341 337 335 331 327 325 329 328 327 328 312 302 299 284 283 278 272 267 252 245 235 237 203 195 233 254 230 215 205 198
197 193 184 188 195 203 217 235 279 303 332 342 346 337 338 337 328 327 326 327 331 325 317 313 311 297 286 277 267 266 259 253 252 239 231 232 207 183 182 215 214 203 197
197 193 186 187 192 194 206 223 230 277 326 335 341 337 336 335 334 330 327 328 327 321 317 315 309 299 288 285 279 265 250 238 244 241 231 221 226 216 172 157 196 196 200
199 196 191 190 190 188 189 199 224 261 303 322 335 342 333 337 334 330 327 325 324 322 321 319 320 308 302 299 282 260 258 248 244 239 233 225 212 216 201 161 176 187 196
199 197 192 186 190 179 180 197 197 232 273 316 334 344 337 332 336 331 321 326 329 326 327 323 319 309 300 288 278 265 252 249 237 238 241 227 222 215 216 202 191 179 178
196 197 191 190 183 180 179 200 217 224 259 287 317 335 323 325 329 330 323 331 329 331 330 328 322 311 302 302 283 256 225 225 237 223 243 238 207 202 210 207 207 202 179
194 197 194 192 187 187 186 196 214 238 269 291 284 287 308 321 325 324 325 320 323 321 326 330 327 317 313 302 296 280 240 196 206 207 220 231 217 179 212 218 205 204 212
198 196 195 193 187 189 188 186 185 199 240 236 249 278 300 312 319 322 324 320 323 322 333 330 326 322 316 310 307 297 285 261 202 187 198 214 185 175 210 241 229 206 203
199 195 196 192 192 190 191 201 210 238 269 289 294 286 281 293 312 315 314 315 320 326 328 327 336 319 307 306 299 289 301 318 271 206 186 195 186 178 261 262 259 227 221
191 190 194 189 192 191 197 201 220 241 266 279 276 273 288 298 301 306 308 309 315 321 324 327 330 323 314 311 310 298 290 281 274 275 228 204 190 174 140 281 265 264 247
174 180 184 187 189 190 199 209 223 240 252 263 266 278 282 286 291 298 297 300 307 316 319 322 320 319 319 319 310 304 305 302 305 284 257 227 208 163 161 245 270 261 258
Height
1521 1522 1522 1524 1525 1526 1527 1527 1528 1528 1529 1529 1530 1530 1531 1531 1531 1531 1531 1531 1531 1531 1531 1531 1530 1530 1529 1529 1528 1527 1527 1526 1526 1525 1525 1524 1524 1523 1523 1522 1522 1522 1520
1522 1523 1523 1524 1526 1527 1527 1528 1529 1529 1530 1530 1530 1531 1531 1531 1531 1531 1531 1531 1531 1531 1531 1531 1530 1530 1529 1529 1528 1528 1527 1527 1527 1526 1526 1525 1525 1524 1524 1523 1522 1522 1521
1523 1524 1524 1525 1526 1527 1528 1529 1529 1530 1530 1530 1531 1531 1531 1531 1531 1531 1531 1531 1531 1531 1530 1530 1530 1530 1530 1529 1529 1528 1528 1527 1527 1527 1527 1528 1527 1525 1525 1524 1523 1523 1522
1524 1525 1526 1526 1527 1528 1528 1529 1529 1530 1530 1530 1531 1531 1531 1531 1531 1531 1531 1530 1530 1530 1530 1530 1530 1529 1529 1529 1529 1528 1528 1528 1527 1527 1529 1529 1528 1526 1525 1525 1524 1524 1523
1525 1526 1526 1527 1528 1528 1529 1529 1530 1530 1530 1530 1530 1530 1530 1530 1530 1530 1530 1529 1529 1529 1529 1529 1529 1529 1529 1528 1528 1528 1528 1528 1527 1528 1529 1528 1527 1526 1526 1525 1525 1525 1524
1527 1528 1527 1528 1529 1529 1529 1530 1530 1530 1530 1530 1530 1530 1530 1529 1529 1529 1529 1528 1528 1528 1528 1528 1528 1527 1527 1528 1528 1527 1527 1527 1528 1529 1528 1528 1528 1526 1526 1526 1526 1525 1525
1528 1529 1529 1529 1530 1530 1530 1530 1530 1530 1530 1530 1530 1529 1529 1529 1528 1528 1527 1527 1527 1527 1527 1526 1526 1526 1526 1526 1527 1526 1526 1527 1527 1528 1528 1528 1527 1526 1526 1526 1526 1526 1526
1529 1530 1531 1530 1530 1531 1531 1531 1530 1530 1530 1530 1529 1529 1528 1528 1528 1527 1527 1526 1526 1525 1525 1525 1525 1525 1525 1525 1525 1525 1525 1525 1527 1528 1528 1528 1527 1526 1526 1526 1526 1526 1526
1530 1531 1532 1533 1532 1531 1531 1531 1531 1531 1530 1530 1529 1528 1528 1527 1527 1526 1526 1525 1525 1524 1524 1524 1523 1523 1523 1523 1523 1523 1524 1524 1525 1527 1527 1527 1526 1526 1526 1526 1526 1527 1527
1531 1532 1533 1533 1534 1534 1533 1532 1531 1531 1530 1530 1529 1528 1528 1527 1526 1526 1525 1524 1524 1523 1523 1522 1522 1522 1521 1521 1522 1522 1522 1523 1524 1525 1526 1526 1525 1525 1526 1526 1526 1527 1527
1532 1533 1534 1534 1534 1534 1534 1533 1532 1532 1531 1530 1530 1528 1528 1528 1528 1526 1525 1523 1523 1522 1521 1521 1520 1520 1520 1520 1520 1520 1520 1522 1523 1524 1524 1524 1524 1524 1525 1526 1526 1527 1527
1533 1534 1534 1535 1535 1535 1535 1534 1534 1533 1532 1531 1530 1529 1529 1528 1526 1525 1523 1522 1521 1520 1520 1519 1519 1519 1519 1520 1519 1519 1520 1520 1521 1522 1523 1522 1523 1524 1524 1525 1526 1526 1527
1533 1534 1534 1535 1535 1535 1535 1534 1534 1533 1532 1531 1530 1529 1528 1527 1526 1525 1524 1523 1522 1520 1520 1519 1518 1519 1518 1518 1518 1518 1518 1519 1520 1520 1521 1520 1521 1522 1523 1524 1525 1526 1527
1533 1534 1534 1535 1536 1536 1535 1535 1534 1533 1532 1531 1530 1529 1528 1527 1526 1525 1524 1522 1521 1520 1518 1518 1517 1517 1517 1517 1517 1517 1517 1517 1518 1518 1518 1518 1520 1521 1522 1523 1524 1525 1526
1533 1534 1534 1535 1535 1535 1535 1534 1534 1533 1532 1531 1529 1528 1528 1527 1526 1524 1523 1521 1521 1519 1518 1517 1516 1516 1515 1515 1515 1515 1515 1515 1516 1517 1517 1517 1518 1519 1521 1522 1523 1524 1525
1532 1533 1534 1534 1535 1535 1535 1534 1534 1533 1531 1531 1529 1528 1527 1526 1525 1524 1523 1521 1520 1518 1517 1516 1515 1514 1514 1514 1513 1513 1513 1514 1514 1515 1516 1516 1517 1518 1519 1520 1522 1523 1524
1532 1533 1533 1534 1534 1534 1534 1534 1533 1532 1532 1530 1529 1528 1527 1526 1524 1523 1522 1521 1519 1517 1516 1515 1514 1513 1513 1512 1512 1512 1512 1512 1512 1514 1514 1515 1516 1517 1518 1519 1520 1522 1523
1531 1532 1532 1533 1533 1533 1533 1533 1533 1532 1531 1530 1529 1527 1526 1525 1524 1522 1521 1520 1518 1516 1515 1514 1513 1512 1512 1511 1511 1511 1511 1511 1511 1512 1513 1514 1515 1517 1517 1518 1519 1521 1522
1529 1531 1532 1532 1532 1532 1532 1532 1531 1531 1530 1529 1528 1527 1526 1525 1523 1522 1520 1518 1517 1516 1514 1513 1512 1511 1511 1510 1510 1510 1510 1510 1510 1511 1512 1513 1514 1515 1516 1517 1518 1519 1520
1528 1529 1530 1530 1531 1531 1531 1531 1531 1530 1530 1529 1528 1526 1524 1524 1522 1521 1520 1518 1516 1515 1513 1512 1511 1510 1509 1509 1509 1509 1509 1509 1509 1510 1510 1512 1512 1514 1515 1516 1517 1518 1519
1526 1527 1528 1529 1530 1530 1530 1530 1530 1530 1529 1528 1527 1525 1524 1523 1521 1520 1519 1517 1515 1514 1513 1512 1510 1510 1509 1509 1509 1509 1508 1508 1509 1509 1509 1510 1511 1512 1513 1514 1516 1517 1518
1524 1526 1527 1528 1529 1529 1529 1529 1529 1528 1528 1527 1526 1525 1524 1522 1521 1520 1518 1517 1515 1513 1512 1511 1509 1509 1508 1508 1508 1508 1508 1509 1507 1508 1508 1509 1510 1511 1511 1513 1514 1515 1517
1522 1524 1525 1526 1527 1527 1527 1527 1527 1527 1527 1527 1526 1525 1523 1522 1520 1519 1518 1516 1515 1514 1512 1511 1509 1508 1508 1508 1508 1508 1508 1507 1507 1508 1507 1508 1508 1509 1510 1512 1513 1514 1515
1521 1522 1524 1525 1526 1526 1526 1526 1527 1527 1527 1527 1526 1524 1523 1521 1520 1518 1517 1516 1515 1513 1512 1511 1510 1508 1507 1507 1507 1507 1508 1507 1507 1507 1507 1507 1508 1508 1509 1510 1511 1513 1514
1519 1520 1522 1523 1524 1524 1525 1525 1525 1526 1526 1525 1524 1524 1523 1521 1519 1518 1516 1515 1514 1513 1512 1510 1509 1508 1507 1507 1507 1507 1507 1506 1506 1506 1506 1507 1507 1507 1508 1509 1510 1511 1512
1517 1518 1520 1521 1522 1522 1523 1523 1524 1524 1524 1524 1523 1523 1522 1521 1519 1518 1516 1515 1514 1512 1511 1510 1509 1508 1507 1506 1506 1506 1506 1506 1506 1506 1506 1506 1506 1507 1507 1507 1508 1509 1510